Location: Belloy
(55.7522°N, 118.2333°W)
Time: 23:13:56
(UTC+00:00)

Envisat - Pass Details

Date: 30 November 2021
Orbit: 764 x 766 km, 98.2° (Epoch: 27 January)

Event Time Altitude Azimuth Distance (km) Brightness Sun altitude
Rises 00:58:21 0° 200° (SSW) 3,224 6.9 -11.9°
Reaches altitude 10° 01:01:01 10° 214° (SSW) 2,303 6.3 -12.3°
Maximum altitude 01:05:12 25° 269° (W) 1,502 5.4 -12.9°
Drops below altitude 10° 01:09:25 10° 325° (NW) 2,318 5.7 -13.4°
Sets 01:12:08 0° 339° (NNW) 3,249 6.3 -13.8°
